Alexandria, MN

8:17 PM CST on December 15, 2019 (GMT -0600)
Chandler

Weather History for KAXN - November, 2019

Change the Weather History Date:

Saturday, November 16, 2019

  Actual Average Record
Temperature  
Mean Temperature 39 °F -  
Max Temperature 46 °F 38 °F 64 °F (2001)
Min Temperature 32 °F 23 °F -8 °F (1959)
Degree Days  
Heating Degree Days 26    
Moisture  
Dew Point 30 °F    
Average Humidity 71    
Maximum Humidity 93    
Minimum Humidity 54    
Precipitation  
Precipitation 0.01 in - - ()
Sea Level Pressure  
Sea Level Pressure 30.01 in    
Wind  
Wind Speed 12 mph ()    
Max Wind Speed 21 mph    
Max Gust Speed 33 mph    
Visibility 9.8 miles    
Events      
Averages and records for this station are not official NWS values.
T = Trace of Precipitation, MM = Missing Value Source: Averaged Metar Reports

Daily Weather History Graph

Daily Weather History Graph

Search for Another Location

Airport or City:

Astronomy

Nov. 16, 2019 Rise Set
Actual Time 7:22 AM CST 4:49 PM CST
Civil Twilight 6:50 AM CST 5:21 PM CST
Nautical Twilight 6:14 AM CST 5:57 PM CST
Astronomical Twilight 5:38 AM CST 6:33 PM CST
Moon 8:17 PM CST 11:23 AM CST
Length of Visible Light 10h 31m
Length of Day
9h 26m
Waning Gibbous, 82% of the Moon is Illuminated
Nov 16
Waning Gibbous
Nov 19
Last Quarter
Nov 26
New
Dec 4
First Quarter
Dec 11
Full

Hourly Weather History & Observations

Time (CST) Temp. Windchill Dew Point Humidity Pressure Visibility Wind Dir Wind Speed Gust Speed Precip Events Conditions
12:53 AM 32.0 °F 22.1 °F 27.0 °F 82% 30.17 in 10.0 mi SE 13.8 mph 26.5 mph N/A   Clear
1:53 AM 32.0 °F 22.1 °F 27.0 °F 82% 30.14 in 10.0 mi ESE 13.8 mph - N/A   Clear
2:53 AM 32.0 °F 22.5 °F 28.0 °F 85% 30.11 in 10.0 mi SE 12.7 mph 20.7 mph N/A   Clear
3:53 AM 32.0 °F 23.0 °F 28.0 °F 85% 30.09 in 10.0 mi SE 11.5 mph - N/A   Clear
4:53 AM 34.0 °F 26.0 °F 28.0 °F 79% 30.08 in 10.0 mi SE 10.4 mph - N/A   Clear
5:53 AM 35.1 °F 26.4 °F 28.9 °F 78% 30.07 in 10.0 mi SE 12.7 mph - N/A   Clear
6:53 AM 36.0 °F 27.1 °F 28.9 °F 76% 30.04 in 10.0 mi SE 13.8 mph - N/A   Clear
7:53 AM 37.0 °F 27.4 °F 28.0 °F 70% 30.04 in 10.0 mi SSE 17.3 mph - N/A   Clear
8:53 AM 39.9 °F 30.2 °F 28.0 °F 63% 30.04 in 10.0 mi South 20.7 mph 33.4 mph N/A   Clear
9:53 AM 41.0 °F 31.6 °F 28.9 °F 62% 30.03 in 10.0 mi South 20.7 mph 29.9 mph N/A   Clear
10:53 AM 41.0 °F 31.9 °F 28.0 °F 60% 30.02 in 10.0 mi South 19.6 mph 33.4 mph N/A   Clear
11:53 AM 45.0 °F 37.6 °F 30.0 °F 56% 29.99 in 10.0 mi South 17.3 mph 28.8 mph N/A   Clear
12:53 PM 45.0 °F 37.9 °F 30.0 °F 56% 29.96 in 10.0 mi South 16.1 mph 27.6 mph N/A   Clear
1:53 PM 46.0 °F 39.3 °F 30.0 °F 54% 29.95 in 10.0 mi South 16.1 mph - N/A   Partly Cloudy
2:53 PM 46.0 °F 39.6 °F 30.0 °F 54% 29.95 in 10.0 mi South 15.0 mph - N/A   Scattered Clouds
3:53 PM 44.1 °F 38.1 °F 28.9 °F 55% 29.95 in 10.0 mi South 11.5 mph - N/A   Clear
4:53 PM 42.1 °F 36.1 °F 28.0 °F 58% 29.96 in 10.0 mi South 10.4 mph - N/A   Clear
5:53 PM 41.0 °F 34.3 °F 28.0 °F 60% 29.96 in 10.0 mi South 11.5 mph - N/A   Overcast
6:53 PM 41.0 °F 35.2 °F 28.9 °F 62% 29.97 in 10.0 mi South 9.2 mph - N/A   Overcast
7:53 PM 39.0 °F 32.3 °F 32.0 °F 76% 29.98 in 10.0 mi SSW 10.4 mph - 0.00 in   Overcast
8:53 PM 37.0 °F 31.0 °F 33.1 °F 86% 29.96 in 9.0 mi SSW 8.1 mph - 0.00 in   Overcast
9:53 PM 37.0 °F 31.6 °F 35.1 °F 93% 29.96 in 8.0 mi SW 6.9 mph - 0.01 in   Overcast
10:53 PM 37.0 °F 31.6 °F 35.1 °F 93% 29.95 in 9.0 mi West 6.9 mph - N/A   Overcast
11:53 PM 39.0 °F 32.8 °F 35.1 °F 86% 29.94 in 10.0 mi West 9.2 mph - N/A   Overcast